Time,TemperatureF,DewpointF,PressureIn,WindDirection,WindDirectionDegrees,WindSpeedMPH,WindSpeedGustMPH,Humidity,HourlyPrecipIn,Conditions,Clouds,dailyrainin,SolarRadiationWatts/m^2,SoftwareType,DateUTC
2013-04-04 00:36:00,49.4,48.0,30.08,South,169,10.0,15.0,95,0.02,,,0.02,0,weatherlink.com 1.10,2013-04-04 07:36:00,
2013-04-04 01:06:00,49.1,48.0,30.06,SE,146,5.0,10.0,96,0.09,,,0.06,0,weatherlink.com 1.10,2013-04-04 08:06:00,
2013-04-04 01:36:00,49.0,48.0,30.05,SE,135,2.0,3.0,96,0.12,,,0.11,0,weatherlink.com 1.10,2013-04-04 08:36:00,
2013-04-04 01:51:00,49.1,48.0,30.04,ESE,117,0.0,3.0,96,0.12,,,0.13,0,weatherlink.com 1.10,2013-04-04 08:51:00,
2013-04-04 02:06:00,49.1,48.0,30.04,ESE,117,1.0,4.0,96,0.08,,,0.14,0,weatherlink.com 1.10,2013-04-04 09:06:00,
2013-04-04 02:36:00,49.2,48.0,30.03,ESE,117,0.0,4.0,96,0.04,,,0.15,0,weatherlink.com 1.10,2013-04-04 09:36:00,
2013-04-04 02:51:00,49.5,48.0,30.04,South,174,1.0,8.0,96,0.04,,,0.17,0,weatherlink.com 1.10,2013-04-04 09:51:00,
2013-04-04 03:06:00,49.3,48.0,30.03,ESE,119,3.0,7.0,96,0.07,,,0.21,0,weatherlink.com 1.10,2013-04-04 10:06:00,
2013-04-04 03:21:00,49.3,48.0,30.02,SE,128,4.0,6.0,96,0.09,,,0.24,0,weatherlink.com 1.10,2013-04-04 10:21:00,
2013-04-04 03:36:00,49.2,48.0,30.02,SE,128,0.0,3.0,96,0.15,,,0.30,0,weatherlink.com 1.10,2013-04-04 10:36:00,
2013-04-04 04:06:00,50.4,49.0,30.02,SE,128,4.0,6.0,96,0.22,,,0.43,0,weatherlink.com 1.10,2013-04-04 11:06:00,
2013-04-04 04:21:00,50.4,49.0,30.02,ESE,120,1.0,7.0,96,0.23,,,0.47,0,weatherlink.com 1.10,2013-04-04 11:21:00,
2013-04-04 04:36:00,50.3,49.0,30.02,South,173,2.0,7.0,96,0.20,,,0.50,0,weatherlink.com 1.10,2013-04-04 11:36:00,
2013-04-04 05:06:00,50.3,49.0,30.01,SE,146,0.0,1.0,96,0.11,,,0.54,0,weatherlink.com 1.10,2013-04-04 12:06:00,
2013-04-04 05:21:00,50.4,49.0,30.02,SSE,148,0.0,5.0,96,0.10,,,0.58,0,weatherlink.com 1.10,2013-04-04 12:21:00,
2013-04-04 05:36:00,50.8,50.0,30.02,SE,146,3.0,8.0,96,0.14,,,0.65,0,weatherlink.com 1.10,2013-04-04 12:36:00,
2013-04-04 05:51:00,51.2,50.0,30.02,SE,139,6.0,10.0,96,0.19,,,0.71,0,weatherlink.com 1.10,2013-04-04 12:51:00,
2013-04-04 06:06:00,51.1,50.0,30.02,South,169,3.0,10.0,96,0.19,,,0.73,0,weatherlink.com 1.10,2013-04-04 13:06:00,
2013-04-04 06:21:00,51.1,50.0,30.03,South,175,6.0,9.0,96,0.15,,,0.74,0,weatherlink.com 1.10,2013-04-04 13:21:00,
2013-04-04 06:36:00,51.0,50.0,30.02,SE,136,3.0,9.0,96,0.10,,,0.75,0,weatherlink.com 1.10,2013-04-04 13:36:00,
2013-04-04 06:51:00,51.3,50.0,30.02,SSE,156,7.0,11.0,96,0.04,,,0.75,0,weatherlink.com 1.10,2013-04-04 13:51:00,
2013-04-04 07:06:00,51.4,50.0,30.03,SSE,167,7.0,13.0,96,0.03,,,0.76,0,weatherlink.com 1.10,2013-04-04 14:06:00,
2013-04-04 07:21:00,51.5,50.0,30.04,SE,137,9.0,11.0,96,0.03,,,0.77,0,weatherlink.com 1.10,2013-04-04 14:21:00,
2013-04-04 07:36:00,51.5,50.0,30.04,South,191,7.0,12.0,96,0.03,,,0.78,16,weatherlink.com 1.10,2013-04-04 14:36:00,
2013-04-04 07:51:00,51.5,50.0,30.05,SSE,162,7.0,15.0,96,0.03,,,0.78,18,weatherlink.com 1.10,2013-04-04 14:51:00,
2013-04-04 08:06:00,51.6,51.0,30.05,SSE,163,6.0,14.0,96,0.02,,,0.78,16,weatherlink.com 1.10,2013-04-04 15:06:00,
2013-04-04 08:37:00,52.0,51.0,30.06,SSE,159,8.0,13.0,96,0.00,,,0.78,37,weatherlink.com 1.10,2013-04-04 15:37:00,
2013-04-04 08:52:00,51.9,51.0,30.07,South,182,8.0,12.0,96,0.00,,,0.78,37,weatherlink.com 1.10,2013-04-04 15:52:00,
2013-04-04 09:07:00,52.0,51.0,30.07,South,173,6.0,12.0,96,0.00,,,0.78,62,weatherlink.com 1.10,2013-04-04 16:07:00,
2013-04-04 09:22:00,52.4,51.0,30.07,SSE,161,8.0,14.0,96,0.01,,,0.79,70,weatherlink.com 1.10,2013-04-04 16:22:00,
2013-04-04 09:37:00,52.7,52.0,30.08,SSE,150,6.0,13.0,96,0.01,,,0.79,62,weatherlink.com 1.10,2013-04-04 16:37:00,
2013-04-04 09:52:00,52.6,52.0,30.08,South,171,5.0,12.0,96,0.02,,,0.80,118,weatherlink.com 1.10,2013-04-04 16:52:00,
2013-04-04 10:07:00,52.6,52.0,30.09,SSE,158,5.0,10.0,96,0.02,,,0.80,67,weatherlink.com 1.10,2013-04-04 17:07:00,
2013-04-04 10:22:00,52.6,52.0,30.09,SSE,160,5.0,10.0,96,0.01,,,0.80,77,weatherlink.com 1.10,2013-04-04 17:22:00,
2013-04-04 10:52:00,53.0,52.0,30.10,SSE,155,6.0,12.0,96,0.01,,,0.81,104,weatherlink.com 1.10,2013-04-04 17:52:00,
2013-04-04 11:07:00,53.3,53.0,30.10,SE,144,3.0,10.0,97,0.01,,,0.81,139,weatherlink.com 1.10,2013-04-04 18:07:00,
2013-04-04 11:37:00,53.6,53.0,30.11,SSE,163,4.0,9.0,96,0.00,,,0.81,155,weatherlink.com 1.10,2013-04-04 18:37:00,
2013-04-04 11:52:00,53.9,53.0,30.11,SE,146,3.0,9.0,97,0.00,,,0.81,221,weatherlink.com 1.10,2013-04-04 18:52:00,
2013-04-04 12:07:00,54.8,54.0,30.11,SSE,165,6.0,8.0,97,0.00,,,0.81,255,weatherlink.com 1.10,2013-04-04 19:07:00,
2013-04-04 12:22:00,54.6,54.0,30.11,SSE,159,3.0,9.0,96,0.00,,,0.81,246,weatherlink.com 1.10,2013-04-04 19:22:00,
2013-04-04 12:37:00,54.7,54.0,30.12,South,178,3.0,8.0,96,0.00,,,0.81,183,weatherlink.com 1.10,2013-04-04 19:37:00,
2013-04-04 13:11:00,54.5,54.0,30.12,South,174,3.0,6.0,97,0.00,,,0.81,239,weatherlink.com 1.10,2013-04-04 20:11:00,
2013-04-04 13:22:00,54.2,53.0,30.12,SSE,154,4.0,6.0,96,0.00,,,0.81,207,weatherlink.com 1.10,2013-04-04 20:22:00,
2013-04-04 13:37:00,54.2,53.0,30.12,SSE,155,2.0,5.0,97,0.00,,,0.81,163,weatherlink.com 1.10,2013-04-04 20:37:00,
2013-04-04 13:52:00,54.1,53.0,30.12,SSE,153,4.0,6.0,96,0.00,,,0.81,199,weatherlink.com 1.10,2013-04-04 20:52:00,
2013-04-04 14:07:00,54.2,53.0,30.12,SSE,151,1.0,6.0,97,0.00,,,0.81,188,weatherlink.com 1.10,2013-04-04 21:07:00,
2013-04-04 14:22:00,54.2,53.0,30.13,SSE,152,3.0,5.0,96,0.00,,,0.81,160,weatherlink.com 1.10,2013-04-04 21:22:00,
2013-04-04 14:37:00,53.6,53.0,30.13,SSE,152,4.0,6.0,96,0.00,,,0.81,165,weatherlink.com 1.10,2013-04-04 21:37:00,
2013-04-04 14:52:00,53.6,53.0,30.13,SSE,155,6.0,7.0,96,0.01,,,0.82,142,weatherlink.com 1.10,2013-04-04 21:52:00,
2013-04-04 15:07:00,54.1,53.0,30.13,SSE,154,3.0,6.0,97,0.01,,,0.82,169,weatherlink.com 1.10,2013-04-04 22:07:00,
2013-04-04 15:22:00,54.4,54.0,30.13,SSE,159,3.0,7.0,97,0.01,,,0.82,155,weatherlink.com 1.10,2013-04-04 22:22:00,
2013-04-04 15:37:00,54.5,54.0,30.13,SSE,154,2.0,7.0,97,0.01,,,0.82,178,weatherlink.com 1.10,2013-04-04 22:37:00,
2013-04-04 15:52:00,54.5,54.0,30.13,SSE,156,5.0,6.0,97,0.00,,,0.82,135,weatherlink.com 1.10,2013-04-04 22:52:00,
2013-04-04 16:07:00,53.9,53.0,30.13,South,178,3.0,8.0,97,0.00,,,0.82,221,weatherlink.com 1.10,2013-04-04 23:07:00,
2013-04-04 16:22:00,54.1,53.0,30.13,South,169,2.0,6.0,97,0.00,,,0.82,134,weatherlink.com 1.10,2013-04-04 23:22:00,
2013-04-04 16:37:00,54.1,53.0,30.13,SSE,162,2.0,6.0,97,0.00,,,0.82,104,weatherlink.com 1.10,2013-04-04 23:37:00,
2013-04-04 16:52:00,53.8,53.0,30.13,SSE,152,6.0,8.0,96,0.00,,,0.82,74,weatherlink.com 1.10,2013-04-04 23:52:00,
2013-04-04 17:07:00,54.0,53.0,30.13,SSE,153,5.0,7.0,97,0.01,,,0.83,65,weatherlink.com 1.10,2013-04-05 00:07:00,
2013-04-04 17:22:00,54.1,53.0,30.13,SSE,154,4.0,5.0,97,0.01,,,0.83,56,weatherlink.com 1.10,2013-04-05 00:22:00,
2013-04-04 17:37:00,53.9,53.0,30.13,SSE,154,3.0,4.0,97,0.01,,,0.83,32,weatherlink.com 1.10,2013-04-05 00:37:00,
2013-04-04 17:52:00,53.9,53.0,30.13,SSE,154,3.0,4.0,97,0.01,,,0.83,47,weatherlink.com 1.10,2013-04-05 00:52:00,
2013-04-04 18:07:00,53.8,53.0,30.13,SSE,154,3.0,6.0,97,0.00,,,0.83,35,weatherlink.com 1.10,2013-04-05 01:07:00,
2013-04-04 18:22:00,53.2,52.0,30.13,SSE,154,2.0,4.0,96,0.00,,,0.83,28,weatherlink.com 1.10,2013-04-05 01:22:00,
2013-04-04 18:37:00,53.0,52.0,30.13,SSE,153,4.0,7.0,97,0.00,,,0.83,21,weatherlink.com 1.10,2013-04-05 01:37:00,
2013-04-04 18:52:00,53.2,52.0,30.13,SSE,152,5.0,6.0,97,0.00,,,0.83,19,weatherlink.com 1.10,2013-04-05 01:52:00,
2013-04-04 19:07:00,53.3,53.0,30.13,SSE,148,4.0,7.0,97,0.00,,,0.83,12,weatherlink.com 1.10,2013-04-05 02:07:00,
2013-04-04 19:22:00,53.2,52.0,30.13,SSE,150,5.0,7.0,97,0.00,,,0.83,0,weatherlink.com 1.10,2013-04-05 02:22:00,
2013-04-04 19:37:00,52.9,52.0,30.13,SSE,150,2.0,5.0,97,0.00,,,0.83,0,weatherlink.com 1.10,2013-04-05 02:37:00,
2013-04-04 19:52:00,53.0,52.0,30.13,SSE,150,4.0,5.0,97,0.00,,,0.83,0,weatherlink.com 1.10,2013-04-05 02:52:00,
2013-04-04 20:07:00,53.1,52.0,30.13,SSE,149,1.0,4.0,97,0.00,,,0.83,0,weatherlink.com 1.10,2013-04-05 03:07:00,
2013-04-04 20:22:00,53.2,52.0,30.14,SSE,149,1.0,5.0,97,0.00,,,0.83,0,weatherlink.com 1.10,2013-04-05 03:22:00,
2013-04-04 20:37:00,53.0,52.0,30.14,SSE,149,1.0,4.0,97,0.00,,,0.83,0,weatherlink.com 1.10,2013-04-05 03:37:00,
2013-04-04 20:53:00,53.0,52.0,30.14,SSE,149,1.0,3.0,97,0.00,,,0.83,0,weatherlink.com 1.10,2013-04-05 03:53:00,
2013-04-04 21:08:00,53.2,52.0,30.15,SSE,149,0.0,3.0,97,0.00,,,0.83,0,weatherlink.com 1.10,2013-04-05 04:08:00,
2013-04-04 21:23:00,53.2,52.0,30.15,SSE,149,1.0,3.0,97,0.00,,,0.83,0,weatherlink.com 1.10,2013-04-05 04:23:00,
2013-04-04 21:38:00,53.4,53.0,30.15,SSE,149,2.0,3.0,97,0.00,,,0.83,0,weatherlink.com 1.10,2013-04-05 04:38:00,
2013-04-04 21:53:00,53.6,53.0,30.15,SSE,149,1.0,4.0,97,0.00,,,0.83,0,weatherlink.com 1.10,2013-04-05 04:53:00,
2013-04-04 22:08:00,53.8,53.0,30.16,SSE,149,2.0,3.0,97,0.00,,,0.83,0,weatherlink.com 1.10,2013-04-05 05:08:00,
2013-04-04 22:23:00,53.7,53.0,30.16,SSE,149,0.0,1.0,97,0.01,,,0.84,0,weatherlink.com 1.10,2013-04-05 05:23:00,
2013-04-04 22:38:00,53.6,53.0,30.16,SSE,149,0.0,1.0,97,0.01,,,0.84,0,weatherlink.com 1.10,2013-04-05 05:38:00,
2013-04-04 23:08:00,53.7,53.0,30.16,SSE,149,2.0,3.0,97,0.01,,,0.84,0,weatherlink.com 1.10,2013-04-05 06:08:00,
2013-04-04 23:23:00,53.9,53.0,30.16,SSE,149,1.0,3.0,97,0.00,,,0.84,0,weatherlink.com 1.10,2013-04-05 06:23:00,
2013-04-04 23:38:00,53.8,53.0,30.16,SSE,149,2.0,2.0,97,0.00,,,0.84,0,weatherlink.com 1.10,2013-04-05 06:38:00,
2013-04-04 23:53:00,53.9,53.0,30.16,SSE,149,0.0,2.0,97,0.00,,,0.84,0,weatherlink.com 1.10,2013-04-05 06:53:00,